Location: Unspecified
(0.0000°N, 0.0000°E)
Time: 07:33:13
(UTC+00:00)

Tiros 1 - Visible Passes

Search period start: 20 October 2021 00:00
Search period end: 30 October 2021 00:00
Orbit: 630 x 663 km, 48.4° (Epoch: 20 October)

Date Brightness Start Highest point End Pass type
(mag) Time Alt. Az. Time Alt. Az. Time Alt. Az.
21 Oct 9.4 19:46:32 10° NW 19:47:25 15° NW 19:47:25 15° NW visible
22 Oct 8.4 18:31:34 10° N 18:34:59 20° NE 18:36:12 18° ENE visible
22 Oct 9.8 20:12:59 10° WNW 20:13:59 15° WNW 20:13:59 15° WNW visible
23 Oct 7.0 18:56:16 10° NNW 19:00:50 69° NE 19:03:09 28° SE visible
24 Oct 8.7 19:22:32 10° WNW 19:26:41 33° SW 19:30:32 12° SSE visible
25 Oct 7.1 18:06:00 10° NNW 18:10:33 60° NE 18:15:06 10° SE visible
25 Oct 10.3 19:52:08 10° SW 19:52:37 10° SW 19:53:07 10° SW visible
26 Oct 8.6 18:32:06 10° WNW 18:36:23 38° SW 18:40:40 10° SSE visible
27 Oct 9.3 05:03:09 10° S 05:07:19 29° SE 05:11:28 10° ENE visible
27 Oct 10.2 19:00:38 10° WSW 19:02:18 12° SW 19:03:59 10° SSW visible
29 Oct 9.3 04:13:01 10° S 04:17:00 26° SE 04:20:58 10° ENE visible
29 Oct 10.2 18:09:42 10° W 18:12:00 14° SW 18:14:16 10° SSW visible
